User: anonymous   Login
Location: Unnamed
(42.1164°N, 2.7652°E)
Time: 11:05:33
(UTC+02:00)
Language:

Gurwin Techsat 1B - Orbit

View from above orbital plane
View from above orbital plane
View from above satellite
View from above satellite

Ground track
Ground track

The orbit data is extracted from the following two-line orbital elements,

1 25397U 98043D   21300.81055706  .00000019  00000-0  27686-4 0  9991
2 25397  98.7851 246.0743 0002307  72.5276 287.6154 14.23719377210542
Epoch (UTC): 27 October 2021 19:27:12
Eccentricity: 0.0002307
inclination: 98.7851°
perigee height: 811 km
apogee height: 814 km
right ascension of ascending node: 246.0743°
argument of perigee: 72.5276°
revolutions per day: 14.23719377
mean anomaly at epoch: 287.6154°
orbit number at epoch: 21054

The dashed part of the orbit path shows where the satellite is in the earth's shadow,  

DLR